�N����,�����b,�ŏ������i�x�j,���ϕ����i�x�j,�ő啗���i�x�j,�ŏ�����(m/s),���ϕ���(m/s),�ő啗��(m/s),�C��(���j,���x�i���j,�C��(hPa),�~�J��(mm),�~�J����(�b�j,�~�J���x(mm/h),�~�Ђ傤��(hit/���u),�~�Ђ傤����(�b�j,�~�Ђ傤���x(hit/���uh),�q�[�^���x(���j,�q�[�^�[�d���iV),�d���d���iV),�Q�Ɠd���iV)
2008/11/01,00:00:01,229,38,210,0.1,2.5,8.2,23.6,85.0,1010.5,0.00,0,0.0,0.0,0,0.0,22.7,0.0,11.6,3.472
2008/11/01,00:10:01,217,38,206,0.1,2.2,7.6,23.5,84.7,1010.4,0.00,0,0.0,0.0,0,0.0,22.9,0.0,11.9,3.472
2008/11/01,00:20:01,276,30,160,0.0,2.5,11.7,23.5,84.1,1010.3,0.00,0,0.0,0.0,0,0.0,22.7,0.0,11.7,3.470
2008/11/01,00:30:01,220,32,206,0.1,3.2,11.2,23.6,84.1,1010.3,0.00,0,0.0,0.0,0,0.0,22.7,0.0,11.8,3.472
2008/11/01,00:40:01,217,36,210,0.0,3.2,11.1,23.5,84.5,1010.3,0.00,0,0.0,0.0,0,0.0,22.6,0.0,12.1,3.470
2008/11/01,00:50:01,222,41,220,0.0,3.3,10.0,23.4,84.6,1010.2,0.00,0,0.0,0.0,0,0.0,22.4,0.0,12.1,3.473
2008/11/01,01:00:01,221,33,214,0.0,4.7,11.1,23.3,83.9,1010.3,0.00,0,0.0,0.0,0,0.0,22.7,0.0,12.0,3.472
2008/11/01,01:10:01,209,29,206,0.3,6.2,12.0,23.6,83.0,1010.2,0.00,0,0.0,0.0,0,0.0,22.7,0.0,12.1,3.473
2008/11/01,01:20:01,205,23,203,0.2,6.6,12.5,23.7,82.2,1010.4,0.00,0,0.0,0.0,0,0.0,22.9,0.0,12.0,3.470
2008/11/01,01:30:01,193,10,191,0.1,5.7,12.6,23.8,81.3,1010.4,0.00,0,0.0,0.0,0,0.0,22.9,0.0,11.8,3.470
2008/11/01,01:40:01,179,357,171,0.1,4.1,14.2,23.8,80.8,1010.2,0.00,0,0.0,0.0,0,0.0,23.3,0.0,11.6,3.470
2008/11/01,01:50:01,148,320,141,0.0,3.6,13.6,23.7,80.2,1010.0,0.00,0,0.0,0.0,0,0.0,22.9,0.0,11.9,3.472
2008/11/01,02:00:01,133,307,130,0.1,3.9,13.1,23.7,80.7,1010.0,0.00,0,0.0,0.0,0,0.0,22.9,0.0,11.9,3.470
2008/11/01,02:10:01,125,306,123,0.1,4.6,12.9,23.8,80.7,1009.9,0.00,0,0.0,0.0,0,0.0,22.9,0.0,11.7,3.472
2008/11/01,02:20:01,138,312,131,0.1,5.9,13.5,23.7,79.5,1009.9,0.00,0,0.0,0.0,0,0.0,22.9,0.0,12.1,3.470
2008/11/01,02:30:01,119,298,117,0.2,4.9,11.0,23.6,79.5,1009.8,0.00,0,0.0,0.0,0,0.0,22.7,0.0,11.9,3.472
2008/11/01,02:40:01,125,311,124,0.1,4.6,10.5,23.4,80.6,1009.7,0.00,0,0.0,0.0,0,0.0,22.6,0.0,11.9,3.470
2008/11/01,02:50:01,132,302,130,0.2,5.3,11.8,23.5,80.1,1009.7,0.00,0,0.0,0.0,0,0.0,22.6,0.0,11.9,3.472
2008/11/01,03:00:01,137,313,125,0.3,6.5,12.5,23.7,79.1,1009.8,0.00,0,0.0,0.0,0,0.0,22.9,0.0,11.9,3.472
2008/11/01,03:10:01,133,311,131,0.2,6.3,12.5,23.8,80.4,1009.6,0.00,0,0.0,0.0,0,0.0,22.9,0.0,11.9,3.472
2008/11/01,03:20:01,128,308,127,0.3,6.2,13.4,23.8,79.8,1009.6,0.00,0,0.0,0.0,0,0.0,22.9,0.0,11.8,3.470
2008/11/01,03:30:01,123,300,122,0.2,5.8,13.2,23.8,80.0,1009.6,0.00,0,0.0,0.0,0,0.0,22.9,0.0,11.9,3.472
2008/11/01,03:40:01,133,314,129,0.2,6.6,13.4,23.8,79.3,1009.6,0.00,0,0.0,0.0,0,0.0,22.9,0.0,11.7,3.472
2008/11/01,03:50:01,139,318,138,0.3,6.5,13.6,23.7,79.2,1009.6,0.00,0,0.0,0.0,0,0.0,23.3,0.0,11.8,3.472
2008/11/01,04:00:01,140,317,136,0.3,6.7,13.9,23.7,78.6,1009.5,0.00,0,0.0,0.0,0,0.0,23.1,0.0,11.8,3.470
2008/11/01,04:10:01,148,320,137,0.1,7.0,13.8,23.7,79.1,1009.5,0.00,0,0.0,0.0,0,0.0,22.9,0.0,11.7,3.470
2008/11/01,04:20:01,141,322,134,0.0,7.0,13.5,23.7,78.7,1009.6,0.00,0,0.0,0.0,0,0.0,22.7,0.0,11.7,3.470
2008/11/01,04:30:01,137,318,129,0.1,6.6,15.2,23.7,78.4,1009.6,0.00,0,0.0,0.0,0,0.0,22.7,0.0,11.9,3.472
2008/11/01,04:40:01,149,326,146,0.3,7.1,14.0,23.7,77.4,1009.6,0.00,0,0.0,0.0,0,0.0,22.9,0.0,11.8,3.470
2008/11/01,04:50:01,126,303,124,0.1,6.0,13.2,23.7,78.5,1009.6,0.00,0,0.0,0.0,0,0.0,22.7,0.0,11.8,3.470
2008/11/01,05:00:01,133,314,124,0.3,6.4,14.4,23.8,78.6,1009.5,0.00,0,0.0,0.0,0,0.0,22.7,0.0,11.7,3.470
2008/11/01,05:10:01,122,299,121,0.2,5.5,12.9,23.7,79.7,1009.6,0.00,0,0.0,0.0,0,0.0,22.9,0.0,11.8,3.472
2008/11/01,05:20:01,116,297,116,0.2,5.6,12.9,23.6,78.4,1009.7,0.00,0,0.0,0.0,0,0.0,22.7,0.0,12.0,3.470
2008/11/01,05:30:01,103,278,102,0.2,5.2,13.9,23.7,77.6,1009.8,0.00,0,0.0,0.0,0,0.0,22.7,0.0,12.0,3.470
2008/11/01,05:40:01,32,199,26,0.2,4.7,11.0,23.6,77.5,1009.8,0.00,0,0.0,0.0,0,0.0,22.7,0.0,11.9,3.472
2008/11/01,05:50:01,337,143,313,0.1,4.8,11.1,23.4,76.5,1009.9,0.00,0,0.0,0.0,0,0.0,22.6,0.0,11.9,3.472
2008/11/01,06:00:01,323,140,313,0.1,4.7,11.9,23.4,75.8,1009.9,0.00,0,0.0,0.0,0,0.0,22.6,0.0,12.0,3.470
2008/11/01,06:10:01,332,142,321,0.1,4.6,11.3,23.3,75.5,1009.9,0.00,0,0.0,0.0,0,0.0,22.6,0.0,11.7,3.470
2008/11/01,06:20:01,342,142,321,0.3,4.8,11.2,23.3,75.3,1009.9,0.00,0,0.0,0.0,0,0.0,22.2,0.0,11.9,3.472
2008/11/01,06:30:01,319,140,316,0.1,4.7,11.5,23.2,76.9,1009.9,0.00,0,0.0,0.0,0,0.0,22.1,0.0,11.6,3.472
2008/11/01,06:40:01,333,140,317,0.0,4.7,10.4,23.2,77.0,1009.9,0.00,0,0.0,0.0,0,0.0,22.6,0.0,12.0,3.472
2008/11/01,06:50:01,318,137,316,0.1,5.0,11.0,23.3,76.6,1010.0,0.00,0,0.0,0.0,0,0.0,22.4,0.0,12.1,3.472
2008/11/01,07:00:01,316,135,311,0.1,4.9,13.1,23.3,76.6,1010.1,0.00,0,0.0,0.0,0,0.0,22.4,0.0,12.0,3.472
2008/11/01,07:10:01,313,133,311,0.2,4.9,11.2,23.4,76.6,1010.2,0.00,0,0.0,0.0,0,0.0,22.9,0.0,12.0,3.470
2008/11/01,07:20:01,319,136,311,0.1,4.7,11.0,23.6,77.3,1010.3,0.00,0,0.0,0.0,0,0.0,23.3,0.0,11.8,3.472
2008/11/01,07:30:01,315,134,314,0.1,4.7,11.7,23.7,78.6,1010.4,0.00,0,0.0,0.0,0,0.0,23.6,0.0,11.9,3.470
2008/11/01,07:40:01,312,129,303,0.1,4.8,12.3,23.8,78.6,1010.5,0.00,0,0.0,0.0,0,0.0,23.9,0.0,11.9,3.472
2008/11/01,07:50:01,321,130,311,0.1,4.9,12.5,23.9,77.2,1010.6,0.00,0,0.0,0.0,0,0.0,24.1,0.0,11.9,3.469
2008/11/01,08:00:01,308,127,306,0.1,5.0,13.0,24.1,76.1,1010.7,0.00,0,0.0,0.0,0,0.0,24.8,0.0,12.0,3.470
2008/11/01,08:10:01,308,123,301,0.1,4.9,12.3,24.3,74.1,1010.8,0.00,0,0.0,0.0,0,0.0,25.3,0.0,12.0,3.468
2008/11/01,08:20:01,301,115,294,0.1,5.0,12.1,24.5,74.2,1011.0,0.00,0,0.0,0.0,0,0.0,25.3,0.0,12.0,3.470
2008/11/01,08:30:01,288,106,287,0.1,5.2,11.3,24.6,75.3,1011.1,0.00,0,0.0,0.0,0,0.0,25.6,0.0,12.0,3.469
2008/11/01,08:40:01,278,92,270,0.1,5.2,11.4,24.9,74.4,1011.2,0.00,0,0.0,0.0,0,0.0,26.3,0.0,11.8,3.470
2008/11/01,08:50:01,271,89,268,0.1,5.0,11.3,25.0,72.8,1011.3,0.00,0,0.0,0.0,0,0.0,26.3,0.0,11.7,3.469
2008/11/01,09:00:01,272,92,265,0.0,4.7,10.9,25.2,73.4,1011.5,0.00,0,0.0,0.0,0,0.0,27.4,0.0,11.9,3.469
2008/11/01,09:10:01,258,75,244,0.1,4.0,10.3,25.2,74.2,1011.7,0.00,0,0.0,0.0,0,0.0,26.6,0.0,12.1,3.469
2008/11/01,09:20:01,256,74,254,0.1,3.6,11.2,25.3,74.2,1011.7,0.00,0,0.0,0.0,0,0.0,26.9,0.0,11.9,3.469
2008/11/01,09:30:01,255,70,244,0.0,4.2,10.9,25.0,75.6,1011.7,0.00,0,0.0,0.0,0,0.0,26.3,0.0,12.1,3.470
2008/11/01,09:40:01,249,68,240,0.1,4.2,12.1,25.0,75.1,1011.7,0.00,0,0.0,0.0,0,0.0,25.9,0.0,11.9,3.470
2008/11/01,09:50:01,255,73,248,0.1,3.6,11.8,25.4,75.0,1011.7,0.00,0,0.0,0.0,0,0.0,26.8,0.0,11.8,3.469
2008/11/01,10:00:01,264,81,260,0.0,3.7,10.1,25.4,74.0,1011.8,0.00,0,0.0,0.0,0,0.0,26.9,0.0,11.8,3.469
2008/11/01,10:10:01,260,79,259,0.1,3.9,11.3,25.2,74.5,1011.8,0.00,0,0.0,0.0,0,0.0,26.3,0.0,12.1,3.470
2008/11/01,10:20:01,256,75,255,0.1,3.5,12.5,26.0,71.9,1012.0,0.00,0,0.0,0.0,0,0.0,28.6,0.0,11.9,3.468
2008/11/01,10:30:01,266,86,265,0.1,3.4,11.0,25.9,74.4,1012.0,0.00,0,0.0,0.0,0,0.0,27.9,0.0,11.9,3.470
2008/11/01,10:40:01,270,92,266,0.1,3.7,12.0,25.7,72.8,1011.8,0.00,0,0.0,0.0,0,0.0,27.9,0.0,11.9,3.469
2008/11/01,10:50:01,280,93,274,0.1,3.8,11.8,25.6,73.2,1011.6,0.00,0,0.0,0.0,0,0.0,27.3,0.0,11.8,3.470
2008/11/01,11:00:01,275,89,267,0.2,3.7,11.6,25.4,74.7,1011.5,0.00,0,0.0,0.0,0,0.0,26.8,0.0,12.0,3.470
2008/11/01,11:10:01,272,89,267,0.1,3.7,12.8,25.6,74.1,1011.3,0.00,0,0.0,0.0,0,0.0,27.1,0.0,11.8,3.469
2008/11/01,11:20:01,254,73,231,0.1,4.3,13.9,25.3,75.0,1011.2,0.00,0,0.0,0.0,0,0.0,26.4,0.0,12.0,3.468
2008/11/01,11:30:01,260,76,257,0.1,4.5,13.9,25.0,76.2,1011.2,0.00,0,0.0,0.0,0,0.0,25.8,0.0,12.0,3.470
2008/11/01,11:40:01,254,68,245,0.1,4.8,13.5,25.1,77.2,1011.1,0.00,0,0.0,0.0,0,0.0,26.1,0.0,12.0,3.469
2008/11/01,11:50:01,250,69,243,0.1,4.9,13.3,25.1,76.5,1011.1,0.00,0,0.0,0.0,0,0.0,25.9,0.0,11.9,3.469
2008/11/01,12:00:01,261,81,258,0.1,4.3,13.0,25.2,76.5,1011.1,0.00,0,0.0,0.0,0,0.0,26.1,0.0,12.1,3.468
2008/11/01,12:10:01,275,98,272,0.0,4.2,13.3,25.3,74.7,1011.0,0.00,0,0.0,0.0,0,0.0,26.3,0.0,12.1,3.469
2008/11/01,12:20:01,277,96,276,0.1,3.9,12.3,25.4,74.5,1010.8,0.00,0,0.0,0.0,0,0.0,26.6,0.0,11.9,3.469
2008/11/01,12:30:01,284,104,282,0.1,3.9,12.5,25.3,74.2,1010.7,0.00,0,0.0,0.0,0,0.0,26.6,0.0,11.9,3.469
2008/11/01,12:40:01,295,113,290,0.0,4.1,12.2,25.5,74.0,1010.5,0.00,0,0.0,0.0,0,0.0,26.8,0.0,11.8,3.469
2008/11/01,12:50:01,288,108,284,0.1,4.2,12.9,25.4,73.2,1010.5,0.00,0,0.0,0.0,0,0.0,26.9,0.0,11.8,3.469
2008/11/01,13:00:01,293,113,291,0.1,4.1,12.6,25.5,73.3,1010.4,0.00,0,0.0,0.0,0,0.0,27.4,0.0,11.8,3.470
2008/11/01,13:10:01,298,112,289,0.1,4.2,11.6,25.1,74.5,1010.3,0.00,0,0.0,0.0,0,0.0,25.9,0.0,11.9,3.469
2008/11/01,13:20:01,296,113,292,0.0,4.4,11.9,25.1,75.5,1010.2,0.00,0,0.0,0.0,0,0.0,25.9,0.0,12.1,3.469
2008/11/01,13:30:01,292,110,289,0.1,4.4,11.9,25.1,75.9,1010.0,0.00,0,0.0,0.0,0,0.0,25.9,0.0,12.0,3.470
2008/11/01,13:40:01,293,111,293,0.1,4.4,11.9,25.1,75.2,1010.1,0.00,0,0.0,0.0,0,0.0,25.9,0.0,11.9,3.469
2008/11/01,13:50:01,291,113,289,0.0,4.4,11.5,25.1,74.2,1009.9,0.00,0,0.0,0.0,0,0.0,25.9,0.0,12.0,3.472
2008/11/01,14:00:01,305,118,300,0.1,4.5,11.0,25.1,73.8,1009.9,0.00,0,0.0,0.0,0,0.0,25.8,0.0,12.0,3.470
2008/11/01,14:10:01,290,111,288,0.1,4.3,12.2,25.0,74.8,1009.9,0.00,0,0.0,0.0,0,0.0,25.4,0.0,12.1,3.470
2008/11/01,14:20:01,301,111,292,0.1,4.1,11.2,24.9,74.1,1009.9,0.00,0,0.0,0.0,0,0.0,25.6,0.0,12.0,3.470
2008/11/01,14:30:01,299,120,293,0.0,3.9,10.0,25.1,73.4,1009.9,0.00,0,0.0,0.0,0,0.0,25.8,0.0,11.9,3.470
2008/11/01,14:40:01,300,118,298,0.1,4.3,10.1,25.0,73.7,1009.9,0.00,0,0.0,0.0,0,0.0,25.6,0.0,11.9,3.470
2008/11/01,14:50:01,302,121,298,0.0,4.3,10.7,25.2,74.0,1009.9,0.00,0,0.0,0.0,0,0.0,25.8,0.0,11.9,3.470
2008/11/01,15:00:01,302,116,300,0.0,4.2,10.6,25.7,72.8,1010.0,0.00,0,0.0,0.0,0,0.0,27.3,0.0,11.8,3.469
2008/11/01,15:10:01,301,124,295,0.0,4.5,10.4,26.0,70.3,1009.9,0.00,0,0.0,0.0,0,0.0,28.1,0.0,11.9,3.469
2008/11/01,15:20:01,304,122,303,0.1,4.5,10.7,25.6,71.2,1009.9,0.00,0,0.0,0.0,0,0.0,27.4,0.0,11.9,3.470
2008/11/01,15:30:01,313,131,310,0.1,4.4,10.1,25.5,70.4,1009.9,0.00,0,0.0,0.0,0,0.0,27.1,0.0,11.9,3.469
2008/11/01,15:40:01,304,127,301,0.1,4.5,10.2,25.3,71.5,1010.0,0.00,0,0.0,0.0,0,0.0,26.9,0.0,12.1,3.472
2008/11/01,15:50:01,309,127,307,0.0,4.6,9.9,25.2,71.7,1009.9,0.00,0,0.0,0.0,0,0.0,25.9,0.0,11.9,3.470
2008/11/01,16:00:01,333,124,277,0.1,5.6,11.2,25.0,72.8,1009.8,0.00,0,0.0,0.0,0,0.0,25.3,0.0,11.8,3.472
2008/11/01,16:10:01,303,122,296,0.2,5.5,11.2,24.9,73.6,1009.6,0.00,0,0.0,0.0,0,0.0,25.1,0.0,11.9,3.470
2008/11/01,16:20:01,312,132,310,0.2,4.6,11.2,25.0,72.5,1009.6,0.00,0,0.0,0.0,0,0.0,25.4,0.0,12.0,3.470
2008/11/01,16:30:01,338,131,308,0.0,5.0,10.9,25.0,72.8,1009.8,0.00,0,0.0,0.0,0,0.0,25.6,0.0,11.9,3.470
2008/11/01,16:40:01,311,130,304,0.1,4.8,11.8,24.9,73.8,1009.9,0.00,0,0.0,0.0,0,0.0,25.3,0.0,11.9,3.470
2008/11/01,16:50:01,308,123,297,0.0,5.1,11.3,24.8,73.5,1010.0,0.00,0,0.0,0.0,0,0.0,24.9,0.0,11.8,3.470
2008/11/01,17:00:01,289,103,285,0.0,5.4,10.9,24.7,73.0,1010.1,0.00,0,0.0,0.0,0,0.0,24.6,0.0,11.8,3.470
2008/11/01,17:10:01,269,84,265,0.0,5.5,10.9,24.6,74.1,1010.2,0.00,0,0.0,0.0,0,0.0,24.3,0.0,11.8,3.470
2008/11/01,17:20:01,254,70,242,0.1,5.6,10.9,24.5,73.0,1010.3,0.00,0,0.0,0.0,0,0.0,24.3,0.0,11.8,3.472
2008/11/01,17:30:01,251,65,222,0.0,5.4,11.2,24.6,73.6,1010.4,0.00,0,0.0,0.0,0,0.0,24.1,0.0,11.8,3.472
2008/11/01,17:40:01,246,64,243,0.1,5.5,10.3,24.5,72.6,1010.3,0.00,0,0.0,0.0,0,0.0,23.8,0.0,11.8,3.470
2008/11/01,17:50:01,251,69,243,0.2,5.6,11.3,24.5,72.4,1010.5,0.00,0,0.0,0.0,0,0.0,23.9,0.0,11.8,3.472
2008/11/01,18:00:01,251,67,242,0.2,5.8,11.1,24.4,72.8,1010.5,0.00,0,0.0,0.0,0,0.0,23.6,0.0,11.9,3.470
2008/11/01,18:10:01,249,62,239,0.1,5.6,10.8,24.3,73.5,1010.5,0.00,0,0.0,0.0,0,0.0,23.4,0.0,11.8,3.472
2008/11/01,18:20:01,248,58,234,0.1,5.6,11.8,24.2,73.8,1010.6,0.00,0,0.0,0.0,0,0.0,23.3,0.0,12.1,3.470
2008/11/01,18:30:01,254,62,240,0.2,5.7,12.0,24.3,73.4,1010.6,0.00,0,0.0,0.0,0,0.0,23.4,0.0,11.9,3.472
2008/11/01,18:40:01,252,61,235,0.2,5.7,11.6,24.4,73.7,1010.6,0.00,0,0.0,0.0,0,0.0,23.4,0.0,12.1,3.470
2008/11/01,18:50:01,249,63,230,0.1,5.6,11.5,24.4,72.7,1010.5,0.00,0,0.0,0.0,0,0.0,23.8,0.0,11.9,3.472
2008/11/01,19:00:01,243,64,243,0.1,5.2,10.7,24.4,72.3,1010.6,0.00,0,0.0,0.0,0,0.0,23.6,0.0,11.8,3.472
2008/11/01,19:10:01,253,67,246,0.2,5.6,11.6,24.4,71.7,1010.6,0.00,0,0.0,0.0,0,0.0,23.6,0.0,11.8,3.470
2008/11/01,19:20:01,245,61,238,0.1,5.7,11.3,24.3,72.5,1010.6,0.00,0,0.0,0.0,0,0.0,23.4,0.0,11.9,3.470
2008/11/01,19:30:01,244,61,237,0.1,5.6,11.1,24.2,72.1,1010.7,0.00,0,0.0,0.0,0,0.0,23.3,0.0,11.9,3.472
2008/11/01,19:40:01,247,63,241,0.0,5.6,11.7,24.2,71.6,1010.8,0.00,0,0.0,0.0,0,0.0,23.3,0.0,12.0,3.470
2008/11/01,19:50:01,253,73,253,0.0,5.8,11.1,24.3,71.5,1010.7,0.00,0,0.0,0.0,0,0.0,23.3,0.0,11.9,3.470
2008/11/01,20:00:01,247,64,243,0.2,5.9,12.4,24.2,71.9,1010.6,0.00,0,0.0,0.0,0,0.0,23.4,0.0,12.0,3.472
2008/11/01,20:10:01,250,67,247,0.4,6.0,11.2,24.2,72.2,1010.6,0.00,0,0.0,0.0,0,0.0,23.3,0.0,11.9,3.470
2008/11/01,20:20:01,251,69,242,0.2,5.7,11.9,24.2,72.2,1010.6,0.00,0,0.0,0.0,0,0.0,23.3,0.0,11.9,3.470
2008/11/01,20:30:01,251,71,247,0.1,5.8,11.3,24.2,72.4,1010.6,0.00,0,0.0,0.0,0,0.0,23.3,0.0,12.0,3.472
2008/11/01,20:40:01,247,66,241,0.1,5.7,11.6,24.0,73.6,1010.7,0.00,0,0.0,0.0,0,0.0,23.1,0.0,12.1,3.470
2008/11/01,20:50:01,245,66,242,0.2,5.7,11.2,24.1,73.5,1010.8,0.00,0,0.0,0.0,0,0.0,23.3,0.0,12.0,3.472
2008/11/01,21:00:01,248,67,241,0.1,5.8,10.7,24.2,74.0,1010.8,0.00,0,0.0,0.0,0,0.0,23.4,0.0,11.8,3.470
2008/11/01,21:10:01,250,65,245,0.1,5.6,10.1,24.3,73.7,1010.7,0.00,0,0.0,0.0,0,0.0,23.6,0.0,11.9,3.472
2008/11/01,21:20:01,251,70,245,0.0,5.6,11.7,24.4,72.6,1010.9,0.00,0,0.0,0.0,0,0.0,23.6,0.0,11.9,3.470
2008/11/01,21:30:01,251,67,206,0.1,5.5,9.5,24.4,72.9,1010.7,0.00,0,0.0,0.0,0,0.0,23.6,0.0,11.8,3.472
2008/11/01,21:40:01,246,64,235,0.1,5.5,10.5,24.4,72.2,1010.6,0.00,0,0.0,0.0,0,0.0,23.6,0.0,11.9,3.470
2008/11/01,21:50:01,250,68,244,0.2,5.6,10.8,24.3,71.8,1010.6,0.00,0,0.0,0.0,0,0.0,23.4,0.0,11.8,3.470
2008/11/01,22:00:01,253,68,245,0.2,5.6,10.9,24.2,72.6,1010.7,0.00,0,0.0,0.0,0,0.0,23.3,0.0,11.8,3.472
2008/11/01,22:10:01,249,69,246,0.1,5.7,10.9,24.3,73.3,1010.9,0.00,0,0.0,0.0,0,0.0,23.4,0.0,12.0,3.470
2008/11/01,22:20:01,249,66,241,0.1,5.7,10.9,24.3,73.1,1010.9,0.00,0,0.0,0.0,0,0.0,23.4,0.0,12.1,3.472
2008/11/01,22:30:01,250,71,243,0.1,5.9,11.3,24.3,73.2,1010.8,0.00,0,0.0,0.0,0,0.0,23.6,0.0,11.8,3.470
2008/11/01,22:40:01,252,73,252,0.1,5.7,11.7,24.4,73.3,1010.9,0.00,0,0.0,0.0,0,0.0,23.6,0.0,11.8,3.470
2008/11/01,22:50:01,254,73,254,0.2,5.9,10.8,24.3,73.4,1010.9,0.00,0,0.0,0.0,0,0.0,23.3,0.0,12.0,3.470
2008/11/01,23:00:01,255,74,254,0.2,5.8,11.2,24.3,73.6,1010.8,0.00,0,0.0,0.0,0,0.0,23.4,0.0,11.8,3.472
2008/11/01,23:10:01,254,70,251,0.1,5.6,10.3,24.3,74.0,1010.8,0.00,0,0.0,0.0,0,0.0,23.6,0.0,12.1,3.470
2008/11/01,23:20:01,251,71,248,0.1,5.7,11.5,24.2,74.4,1010.7,0.00,0,0.0,0.0,0,0.0,23.3,0.0,12.1,3.472
2008/11/01,23:30:01,253,73,251,0.0,5.8,10.7,24.2,74.5,1010.7,0.00,0,0.0,0.0,0,0.0,23.4,0.0,12.1,3.470
2008/11/01,23:40:01,252,71,252,0.1,5.7,10.4,24.2,74.1,1010.7,0.00,0,0.0,0.0,0,0.0,23.3,0.0,12.1,3.470
2008/11/01,23:50:01,256,77,255,0.1,6.0,11.7,24.2,74.1,1010.7,0.00,0,0.0,0.0,0,0.0,23.3,0.0,12.0,3.470
2008/11/02,00:00:01,253,72,251,0.2,5.8,11.3,24.2,74.8,1010.5,0.00,0,0.0,0.0,0,0.0,23.3,0.0,12.1,3.472
2008/11/02,00:10:01,259,81,257,0.2,5.9,12.1,24.2,73.9,1010.5,0.00,0,0.0,0.0,0,0.0,23.3,0.0,11.9,3.470
2008/11/02,00:20:01,271,89,265,0.2,6.1,11.3,24.2,73.8,1010.5,0.00,0,0.0,0.0,0,0.0,23.3,0.0,12.0,3.473
2008/11/02,00:30:01,265,85,264,0.2,6.2,11.7,24.2,73.3,1010.3,0.00,0,0.0,0.0,0,0.0,23.3,0.0,11.9,3.470
2008/11/02,00:40:01,264,83,264,0.2,6.0,11.8,24.3,73.1,1010.3,0.00,0,0.0,0.0,0,0.0,23.4,0.0,12.0,3.470
2008/11/02,00:50:01,264,84,262,0.2,6.1,13.6,24.3,72.9,1010.4,0.00,0,0.0,0.0,0,0.0,23.6,0.0,12.1,3.469
2008/11/02,01:00:01,262,82,261,0.2,6.0,11.5,24.3,72.8,1010.4,0.00,0,0.0,0.0,0,0.0,23.6,0.0,12.0,3.472
2008/11/02,01:10:01,260,78,259,0.2,5.8,10.4,24.3,73.1,1010.4,0.00,0,0.0,0.0,0,0.0,23.6,0.0,12.0,3.470
2008/11/02,01:20:01,262,81,261,0.5,5.8,11.0,24.3,73.3,1010.3,0.00,0,0.0,0.0,0,0.0,23.6,0.0,12.0,3.472
2008/11/02,01:30:01,263,86,262,0.1,6.1,11.2,24.3,72.9,1010.4,0.00,0,0.0,0.0,0,0.0,23.6,0.0,12.0,3.470
2008/11/02,01:40:01,290,84,263,0.2,5.9,11.3,24.3,72.9,1010.4,0.00,0,0.0,0.0,0,0.0,23.8,0.0,11.9,3.472
2008/11/02,01:50:01,326,92,270,0.1,6.0,10.9,24.4,73.5,1010.3,0.00,0,0.0,0.0,0,0.0,23.6,0.0,11.9,3.473
2008/11/02,02:00:01,320,87,265,0.1,5.5,11.2,24.3,73.7,1010.4,0.00,0,0.0,0.0,0,0.0,23.6,0.0,11.7,3.470
2008/11/02,02:10:01,263,84,261,0.1,5.7,10.7,24.4,73.7,1010.4,0.00,0,0.0,0.0,0,0.0,23.9,0.0,11.8,3.472
2008/11/02,02:20:01,265,84,264,0.1,5.7,10.6,24.4,73.6,1010.3,0.00,0,0.0,0.0,0,0.0,23.8,0.0,11.8,3.470
2008/11/02,02:30:01,277,85,264,0.1,5.7,10.5,24.5,73.8,1010.2,0.00,0,0.0,0.0,0,0.0,23.8,0.0,11.8,3.472
2008/11/02,02:40:01,260,80,260,0.4,5.7,9.3,24.4,74.5,1010.3,0.00,0,0.0,0.0,0,0.0,23.6,0.0,11.8,3.472
2008/11/02,02:50:01,260,80,258,0.3,5.8,10.1,24.4,74.7,1010.2,0.00,0,0.0,0.0,0,0.0,23.6,0.0,11.9,3.470
2008/11/02,03:00:01,255,70,230,0.1,5.4,10.0,24.4,74.6,1010.0,0.00,0,0.0,0.0,0,0.0,23.6,0.0,11.7,3.472
2008/11/02,03:10:01,249,67,244,0.1,5.0,10.1,24.4,74.7,1010.0,0.00,0,0.0,0.0,0,0.0,23.6,0.0,11.9,3.472
2008/11/02,03:20:01,246,65,232,0.4,5.5,10.1,24.4,74.8,1009.8,0.00,0,0.0,0.0,0,0.0,23.8,0.0,11.9,3.472
2008/11/02,03:30:01,247,65,213,0.1,5.3,9.9,24.4,74.9,1009.8,0.00,0,0.0,0.0,0,0.0,23.8,0.0,11.9,3.472
2008/11/02,03:40:01,247,64,243,0.2,5.4,9.9,24.3,75.8,1009.8,0.00,0,0.0,0.0,0,0.0,23.6,0.0,11.8,3.472
2008/11/02,03:50:01,246,64,238,0.1,5.5,9.9,24.3,76.0,1009.6,0.00,0,0.0,0.0,0,0.0,23.6,0.0,11.7,3.472
2008/11/02,04:00:01,247,67,246,0.4,5.6,10.6,24.4,75.8,1009.5,0.00,0,0.0,0.0,0,0.0,23.6,0.0,11.8,3.470
2008/11/02,04:10:01,262,81,258,0.3,5.7,10.8,24.4,75.9,1009.2,0.00,0,0.0,0.0,0,0.0,23.6,0.0,12.1,3.470
2008/11/02,04:20:01,327,100,277,0.1,6.0,12.0,24.3,76.1,1009.4,0.00,0,0.0,0.0,0,0.0,23.4,0.0,12.0,3.473
2008/11/02,04:30:01,263,81,263,0.1,5.5,10.6,24.3,77.0,1009.5,0.00,0,0.0,0.0,0,0.0,23.6,0.0,12.0,3.473
2008/11/02,04:40:01,263,85,262,0.2,5.7,11.4,24.4,76.4,1009.6,0.00,0,0.0,0.0,0,0.0,23.6,0.0,12.0,3.470
2008/11/02,04:50:01,311,88,265,0.0,5.4,10.7,24.5,76.4,1009.7,0.00,0,0.0,0.0,0,0.0,23.6,0.0,11.7,3.472
2008/11/02,05:00:01,293,89,265,0.2,5.4,10.3,24.4,76.7,1009.7,0.00,0,0.0,0.0,0,0.0,23.6,0.0,11.8,3.470
2008/11/02,05:10:01,326,86,265,0.4,5.6,10.1,24.4,76.8,1009.8,0.00,0,0.0,0.0,0,0.0,23.8,0.0,11.9,3.470
2008/11/02,05:20:01,326,89,264,0.5,5.7,11.0,24.5,76.1,1009.8,0.00,0,0.0,0.0,0,0.0,23.8,0.0,11.9,3.470
2008/11/02,05:30:01,328,95,269,0.2,5.9,11.0,24.5,76.3,1009.7,0.00,0,0.0,0.0,0,0.0,23.8,0.0,11.8,3.472
2008/11/02,05:40:01,294,88,265,0.1,5.8,11.0,24.5,76.6,1009.9,0.00,0,0.0,0.0,0,0.0,23.8,0.0,11.9,3.473
2008/11/02,05:50:01,263,79,261,0.1,5.6,10.3,24.5,77.3,1009.7,0.00,0,0.0,0.0,0,0.0,23.6,0.0,11.9,3.472
2008/11/02,06:00:01,330,94,264,0.4,5.9,12.0,24.6,76.6,1009.5,0.00,0,0.0,0.0,0,0.0,23.6,0.0,12.0,3.473
2008/11/02,06:10:01,285,85,264,0.2,5.3,11.3,24.5,77.4,1009.8,0.00,0,0.0,0.0,0,0.0,23.8,0.0,11.8,3.470
2008/11/02,06:20:01,290,101,265,0.3,5.7,12.6,24.5,77.6,1009.8,0.00,0,0.0,0.0,0,0.0,23.8,0.0,11.9,3.470
2008/11/02,06:30:01,288,102,264,0.1,6.0,11.9,24.5,78.2,1009.8,0.00,0,0.0,0.0,0,0.0,23.6,0.0,11.9,3.469
2008/11/02,06:40:01,323,88,265,0.1,5.6,10.7,24.6,78.4,1010.0,0.00,0,0.0,0.0,0,0.0,23.9,0.0,11.8,3.470
2008/11/02,06:50:01,280,90,265,0.1,5.2,11.1,24.5,78.9,1010.1,0.00,0,0.0,0.0,0,0.0,23.8,0.0,11.7,3.470
2008/11/02,07:00:01,318,89,265,0.2,5.4,10.6,24.6,78.6,1010.1,0.00,0,0.0,0.0,0,0.0,23.9,0.0,11.9,3.469
2008/11/02,07:10:01,326,101,264,0.2,4.3,10.3,24.6,79.1,1010.4,0.00,0,0.0,0.0,0,0.0,23.9,0.0,11.7,3.470
2008/11/02,07:20:01,326,123,305,0.0,3.3,9.9,24.5,80.0,1010.2,0.00,0,0.0,0.0,0,0.0,23.9,0.0,11.8,3.472
2008/11/02,07:30:01,326,115,295,0.2,5.6,11.9,24.2,82.9,1010.0,0.00,30,0.0,0.0,0,0.0,23.4,0.0,11.9,3.472
2008/11/02,07:40:01,325,126,260,0.2,4.9,11.5,24.0,84.6,1009.8,0.01,170,0.0,0.0,0,0.0,22.9,0.0,12.0,3.470
2008/11/02,07:50:01,330,138,286,0.0,4.9,12.8,23.9,84.8,1009.7,0.00,0,0.0,0.0,0,0.0,22.9,0.0,11.8,3.472
2008/11/02,08:00:01,358,137,221,0.1,4.6,10.9,24.0,84.9,1009.9,0.00,0,0.0,0.0,0,0.0,23.1,0.0,11.6,3.470
2008/11/02,08:10:01,343,134,313,0.2,5.5,11.5,24.1,84.0,1010.1,0.00,0,0.0,0.0,0,0.0,23.4,0.0,11.7,3.470
2008/11/02,08:20:01,335,132,280,0.4,5.6,11.3,24.3,83.6,1010.1,0.00,0,0.0,0.0,0,0.0,23.8,0.0,12.0,3.470
2008/11/02,08:30:01,343,133,277,0.2,5.6,10.4,24.4,83.1,1010.4,0.00,0,0.0,0.0,0,0.0,23.9,0.0,12.0,3.472
2008/11/02,08:40:01,333,135,273,0.1,5.9,11.0,24.4,83.0,1010.5,0.00,0,0.0,0.0,0,0.0,23.8,0.0,11.9,3.472
2008/11/02,08:50:01,327,136,256,0.1,5.7,11.4,24.4,83.1,1010.4,0.00,0,0.0,0.0,0,0.0,23.9,0.0,12.1,3.472
2008/11/02,09:00:01,340,133,260,0.2,6.4,11.8,24.6,82.5,1010.3,0.00,0,0.0,0.0,0,0.0,24.1,0.0,11.8,3.474
2008/11/02,09:10:01,357,131,246,0.4,6.9,11.3,24.8,81.7,1010.2,0.00,0,0.0,0.0,0,0.0,24.6,0.0,11.8,3.470
2008/11/02,09:20:01,325,134,264,0.2,6.4,11.3,25.7,78.6,1010.4,0.00,0,0.0,0.0,0,0.0,26.6,0.0,12.1,3.469
2008/11/02,09:30:01,328,138,264,0.1,6.7,12.5,26.3,76.1,1010.4,0.00,0,0.0,0.0,0,0.0,27.4,0.0,11.9,3.469
2008/11/02,09:40:01,325,136,265,0.1,7.3,12.8,26.1,76.5,1010.5,0.00,0,0.0,0.0,0,0.0,27.6,0.0,11.9,3.469
2008/11/02,09:50:01,332,134,300,0.4,6.9,13.0,25.9,77.8,1010.5,0.00,0,0.0,0.0,0,0.0,26.6,0.0,11.9,3.470
2008/11/02,10:00:01,319,132,287,0.2,6.7,11.9,26.1,77.8,1010.4,0.00,0,0.0,0.0,0,0.0,26.8,0.0,11.9,3.469
2008/11/02,10:10:01,330,133,265,0.2,7.4,12.9,26.2,76.3,1010.3,0.00,0,0.0,0.0,0,0.0,26.9,0.0,11.9,3.469
2008/11/02,10:20:01,326,133,264,0.2,6.8,11.7,26.1,76.3,1010.4,0.00,0,0.0,0.0,0,0.0,26.8,0.0,11.9,3.470
2008/11/02,10:30:01,338,129,264,0.1,7.0,12.8,26.1,76.1,1010.4,0.00,0,0.0,0.0,0,0.0,26.6,0.0,11.9,3.469
2008/11/02,10:40:01,310,126,265,0.2,7.0,12.8,25.9,76.1,1010.2,0.00,0,0.0,0.0,0,0.0,26.3,0.0,12.0,3.470
2008/11/02,10:50:01,309,125,280,0.1,7.4,13.0,26.1,76.1,1010.0,0.00,0,0.0,0.0,0,0.0,26.6,0.0,11.9,3.469
2008/11/02,11:00:01,328,127,265,0.2,7.1,12.7,26.4,74.9,1009.8,0.00,0,0.0,0.0,0,0.0,27.1,0.0,11.9,3.470
2008/11/02,11:10:01,319,128,264,0.4,7.6,12.3,26.2,76.4,1009.6,0.00,0,0.0,0.0,0,0.0,26.9,0.0,11.8,3.470
2008/11/02,11:20:01,334,122,260,0.2,5.9,13.0,25.3,79.9,1009.5,0.01,90,0.1,0.0,0,0.0,25.6,0.0,11.7,3.469
2008/11/02,11:30:01,332,125,264,0.2,5.1,12.9,25.0,84.6,1009.4,0.09,470,0.0,0.0,0,0.0,24.8,0.0,11.8,3.470
2008/11/02,11:40:01,289,106,280,0.2,4.2,13.4,24.7,84.9,1009.4,0.03,140,1.0,0.0,0,0.0,24.4,0.0,12.1,3.470
2008/11/02,11:50:01,18,111,255,0.1,3.8,12.5,24.6,84.9,1009.3,0.07,310,0.0,0.0,0,0.0,24.4,0.0,11.6,3.470
2008/11/02,12:00:01,279,97,270,0.1,2.6,9.5,24.7,84.6,1009.2,0.00,10,0.0,0.0,0,0.0,24.3,0.0,11.8,3.470
2008/11/02,12:10:01,306,115,258,0.1,2.9,10.5,24.7,85.8,1008.9,0.18,320,0.1,0.0,0,0.0,23.9,0.0,11.8,3.472
2008/11/02,12:20:01,323,131,311,0.1,2.8,10.8,24.7,86.4,1008.6,0.36,460,2.7,0.0,0,0.0,23.8,0.0,11.7,3.470
2008/11/02,12:30:01,33,123,273,0.2,2.6,10.0,24.7,86.3,1008.5,0.00,10,0.0,0.0,0,0.0,23.9,0.0,11.7,3.470
2008/11/02,12:40:01,344,125,218,0.1,2.9,11.0,24.7,86.1,1008.3,0.04,100,1.5,0.0,0,0.0,23.9,0.0,11.6,3.472
2008/11/02,12:50:01,339,123,293,0.2,2.7,9.8,24.8,86.2,1008.0,0.03,100,0.0,0.0,0,0.0,23.9,0.0,11.6,3.470
2008/11/02,13:00:01,330,120,271,0.1,3.2,11.7,24.6,85.7,1007.9,0.47,230,0.0,0.0,0,0.0,23.9,0.0,11.6,3.470
2008/11/02,13:10:01,304,121,296,0.1,3.8,11.1,24.8,85.1,1007.8,0.80,130,38.5,0.0,0,0.0,23.9,0.0,11.8,3.470
2008/11/02,13:20:01,312,122,286,0.1,5.2,13.8,24.4,87.1,1007.6,2.04,600,0.6,0.0,0,0.0,23.4,0.0,11.7,3.470
2008/11/02,13:30:01,326,141,229,0.1,6.5,11.8,24.5,87.8,1007.2,0.12,370,0.0,0.0,0,0.0,23.4,0.0,11.8,3.470
2008/11/02,13:40:01,326,143,255,0.0,4.7,11.3,24.4,87.8,1007.5,2.36,420,4.5,0.0,0,0.0,23.4,0.0,11.9,3.472
2008/11/02,13:50:01,327,133,309,0.1,2.8,11.4,24.4,88.3,1007.7,1.33,600,11.9,0.0,0,0.0,22.7,0.0,11.8,3.470
2008/11/02,14:00:01,291,97,265,0.0,2.3,8.7,24.3,88.5,1008.0,6.09,600,113.4,0.0,0,0.0,23.3,0.0,12.3,3.464
2008/11/02,14:10:01,245,73,238,0.0,2.3,8.9,23.9,88.5,1007.7,2.74,530,0.0,0.0,0,0.0,23.3,0.0,11.8,3.470
2008/11/02,14:20:01,11,161,331,0.0,3.4,8.2,24.1,89.3,1007.8,0.00,0,0.0,0.0,0,0.0,23.3,0.0,11.8,3.470